Powrót do katalogu

FENGYUN 1C DEB

AktywnySSO
NORAD 31017·DEBRIS·🇨🇳 China

Wystrzelony May 10, 1999 z Taiyuan Satellite Launch Center

Loading…

Następne Przeloty (najbliższe 24 godziny)

TLE

ŚwieżeSource: Space-Track

Epoka: Sep 14, 2026, 04:23 UTC

1 31017U 99025BDK 26257.18274485  .00000401  00000-0  24201-3 0  9995
2 31017  98.7062 238.6826 0111655 290.1998 129.6159 14.09131329  1746

Śledź FENGYUN 1C DEB w czasie rzeczywistym z AllMySat

Download on the App Store